[Iaude] MPEC U43: 2023 TD22 [a=48.66,e=0.95,i=170.5,H=15.0]
    mpec at marsden.cfa.harvard.edu 
    mpec at marsden.cfa.harvard.edu
       
    Tue Oct 17 10:03:25 EDT 2023
    
    
  
M.P.E.C. 2023-U43                              Issued 2023 October 17, 14:01 UT
     The Minor Planet Electronic Circulars contain information on unusual
         minor planets, routine data on comets and natural satellites,
         and occasional editorial announcements.  They are published
    on behalf of Division F of the International Astronomical Union by the
          Minor Planet Center, Smithsonian Astrophysical Observatory,
                          Cambridge, MA 02138, U.S.A.
			  
             Prepared using the Tamkin Foundation Computer Network
                              MPC at CFA.HARVARD.EDU
            URL https://www.minorplanetcenter.net/    ISSN 1523-6714
                                   2023 TD22                                    
Observations:
     K23T22D  C2023 09 26.50552704 43 26.780+13 38 45.64         21.89GVEU043F52
     K23T22D  C2023 09 26.51637104 43 26.239+13 38 43.30         21.80GVEU043F52
     K23T22D  C2023 09 26.52725804 43 25.712+13 38 40.79         21.96GVEU043F52
     K23T22D  C2023 09 26.53814304 43 25.207+13 38 39.12         21.91GVEU043F52
     K23T22D  C2023 10 07.49168004 33 05.190+12 58 51.04         21.18GVEU043F52
     K23T22D  C2023 10 07.50337404 33 04.406+12 58 48.42         20.90GVEU043F52
     K23T22D  C2023 10 07.51508004 33 03.647+12 58 45.40         21.15GVEU043F52
     K23T22D  C2023 10 07.52669804 33 02.876+12 58 42.80         21.28GVEU043F52
     K23T22D*1C2023 10 12.38144504 27 21.366+12 38 05.24         21.54GVEU043G96
     K23T22D 1C2023 10 12.38752504 27 20.887+12 38 02.40               VEU043G96
     K23T22D 1C2023 10 12.39268804 27 20.516+12 38 01.64         20.78GVEU043G96
     K23T22D 1C2023 10 12.39888204 27 20.070+12 37 59.88         20.88GVEU043G96
     K23T22D  C2023 10 12.46793504 27 14.938+12 37 41.84         21.46wXEU043F51
     K23T22D KC2023 10 12.47150404 27 14.544+12 37 40.30         21.62GVEU043V06
     K23T22D KC2023 10 12.47523004 27 14.267+12 37 39.50         21.22GVEU043V06
     K23T22D KC2023 10 12.47895704 27 13.986+12 37 38.78         21.15GVEU043V06
     K23T22D  C2023 10 12.47971804 27 14.060+12 37 38.72         21.28wXEU043F51
     K23T22D KC2023 10 12.48268504 27 13.691+12 37 37.38         21.14GVEU043V06
     K23T22D  C2023 10 12.49379304 27 12.986+12 37 34.96         21.36wXEU043F51
     K23T22D  C2023 10 12.50552004 27 12.091+12 37 31.99         21.80wXEU043F51
     K23T22D KC2023 10 13.32019104 26 10.43 +12 33 51.8          21.5 VuEU043H21
     K23T22D KC2023 10 13.32861004 26 09.79 +12 33 49.2          21.1 VuEU043H21
     K23T22D KC2023 10 13.33020004 26 09.65 +12 33 48.8          21.2 VuEU043H21
     K23T22D KC2023 10 13.33338104 26 09.40 +12 33 48.4          21.6 VuEU043H21
     K23T22D KC2023 10 16.50229 04 21 58.24 +12 19 03.3          20.7 RVEU043691
     K23T22D KC2023 10 16.50827 04 21 57.72 +12 19 01.2          21.1 RVEU043691
     K23T22D KC2023 10 16.51425 04 21 57.20 +12 18 59.5          21.2 RVEU043691
     K23T22D  C2023 10 17.41986904 20 42.209+12 14 37.18         21.03GVEU043V00
     K23T22D  C2023 10 17.42538804 20 41.752+12 14 35.45         20.74GVEU043V00
     K23T22D  C2023 10 17.43088904 20 41.280+12 14 33.94         21.09GVEU043V00
     K23T22D  C2023 10 17.43639504 20 40.816+12 14 32.32         21.15GVEU043V00
     K23T22D  C2023 10 17.46405104 20 38.576+12 14 24.65         21.27wXEU043F52
     K23T22D  C2023 10 17.47517604 20 37.661+12 14 21.41         21.30wXEU043F52
     K23T22D  C2023 10 17.48630204 20 36.695+12 14 18.28         21.27wXEU043F52
Observer details:
691 Steward Observatory, Kitt Peak-Spacewatch.  Observer R. A. Mastaler.
    0.9-m f/3 reflector + CCD.
F51 Pan-STARRS 1, Haleakala.  Observers J. Bulger, T. Lowe, P. Minguez, A.
    Schultz, I. Smith.  Measurers K. Chambers, T. de Boer, J. Fairlamb, H.
    Gao, M. Huber, C.-C. Lin, E. Magnier, Y. Ramanjooloo, R. Wainscoat, R.
    Weryk.  1.8-m Ritchey-Chretien + CCD.
F52 Pan-STARRS 2, Haleakala.  Observers J. Bulger, T. Lowe, P. Minguez, A.
    Schultz, I. Smith.  Measurers K. Chambers, T. de Boer, J. Fairlamb, H.
    Gao, M. Huber, C.-C. Lin, E. Magnier, Y. Ramanjooloo, R. Wainscoat, R.
    Weryk.  1.8-m Ritchey-Chretien + CCD.
G96 Mt. Lemmon Survey.  Observer D. Rankin.  Measurers E. C. Beshore, D. Fay,
    J. B. Fazekas, D. C. Fuls, A. R. Gibbs, A. D. Grauer, H. Groeller, J. K.
    Hogan, R. A. Kowalski, S. M. Larson, G. J. Leonard, D. Rankin, R. L.
    Seaman, F. C. Shelly, K. W. Wierzchos.  1.5-m reflector + 10K CCD.
H21 Astronomical Research Observatory, Westfield.  Observer R. Holmes.
    Measurers T. Linder, R. Holmes, L. Horn.  0.81-m f/4.0 astrograph + CCD.
V00 Kitt Peak-Bok.  Observer R. A. Mastaler.  Measurers M. J. Brucker, C. E.
    Woodward, D. Fay, J. B. Fazekas, D. C. Fuls, A. R. Gibbs, H. Groeller, J.
    K. Hogan, R. A. Kowalski, S. M. Larson, C. Lejoly, G. J. Leonard, R. A.
    Mastaler, R. S. McMillan, D. Rankin, R. L. Seaman, A. Serrano, F. C.
    Shelly, K. W. Wierzchos.  2.25-m reflector + 4x4K mosaic CCD.
V06 Catalina Sky Survey-Kuiper.  Observer J. B. Fazekas.  Measurers E. C.
    Beshore, D. Fay, J. B. Fazekas, D. C. Fuls, A. R. Gibbs, A. D. Grauer, H.
    Groeller, J. K. Hogan, R. A. Kowalski, S. M. Larson, G. J. Leonard, D.
    Rankin, R. L. Seaman, F. C. Shelly, K. W. Wierzchos.  1.55-m reflector +
    1K CCD.
Orbital elements:
2023 TD22                                                                       
Epoch 2023 Sept. 13.0 TT = JDT 2460200.5                Bell                    
M 358.92755              (2000.0)            P               Q                  
n   0.00290348     Peri.   32.52718     +0.88964059     -0.45639355             
a  48.6620494      Node     5.44299     -0.44627014     -0.86162353             
e   0.9516471      Incl.  170.51088     -0.09686369     -0.22205813             
P 339              H   15.00          G   0.15           U   8                  
Residuals in seconds of arc
230926 F52  0.1+  0.2+    231012 F51  0.0   0.0     231016 691  0.3+  0.4+
230926 F52  0.1-  0.0     231012 V06  0.1-  0.2-    231016 691  0.0   0.0
230926 F52  0.2-  0.5-    231012 V06  0.0   0.0     231016 691  0.4-  0.1+
230926 F52  0.1+  0.0     231012 V06  0.0   0.3+    231017 V00  0.0   0.0
231007 F52  0.1-  0.0     231012 F51  0.2+  0.0     231017 V00  0.1+  0.1-
231007 F52  0.1-  0.2+    231012 V06  0.2-  0.1-    231017 V00  0.0   0.0
231007 F52  0.2+  0.0     231012 F51  0.1+  0.0     231017 V00  0.1+  0.1-
231007 F52  0.3+  0.2+    231012 F51  0.0   0.1+    231017 F52  0.2-  0.1-
231012 G96  0.0   0.7+    231013 H21  0.4-  0.2+    231017 F52  0.2+  0.1-
231012 G96  0.3-  0.5-    231013 H21  0.2-  0.1-    231017 F52  0.1-  0.0
231012 G96  0.0   0.1+    231013 H21  0.5-  0.1-
231012 G96  0.3+  0.0     231013 H21  0.5-  0.4+
Ephemeris:
2023 TD22                a,e,i = 48.66, 0.95, 171                q = 2.3530
Date    TT    R. A. (2000) Decl.     Delta      r    Elong.  Phase     V
2023 09 17    04 49 49.6 +14 06 32   4.0853  4.3832   100.6    13.0    22.0
...
2023 10 02    04 38 41.2 +13 19 56   3.7082  4.2689   117.9    12.0    21.7
...
2023 10 10    04 30 14.1 +12 48 27   3.5223  4.2080   127.7    10.8    21.5
...
2023 10 16    04 22 39.4 +12 21 28   3.3935  4.1624   135.4     9.7    21.4
2023 10 17    04 21 17.3 +12 16 40   3.3730  4.1548   136.7     9.5    21.4
2023 10 18    04 19 53.4 +12 11 48   3.3529  4.1472   138.0     9.3    21.3
...
2023 10 24    04 10 53.2 +11 40 49   3.2397  4.1017   145.9     7.8    21.2
...
2023 11 01    03 57 19.5 +10 55 00   3.1106  4.0411   156.6     5.6    20.9
...
2023 11 16    03 28 07.2 +09 17 57   2.9487  3.9280   170.7     2.3    20.6
M. P. C. Staff               (C) Copyright 2023 MPC           M.P.E.C. 2023-U43
    
    
More information about the Iaude
mailing list